{"data":{"norad_id":61687,"intl_designator":"2024-195A","name":"STARLINK-11335 [DTC]","alt_names":[],"object_type":"PAYLOAD","status":"ACTIVE","operator":null,"country":"US","launch_date":"2024-10-30","launch_site_code":"AFWTR","launch_vehicle":null,"mission":null,"orbit_class":"UNKNOWN","rcs_meters":null,"size_class":null,"mass_kg":null,"dimensions":null,"purposes":["comms"],"wikipedia_slug":null,"has_3d_model":false,"image_url":null,"decayed_at":null,"tle_current":{"epoch":"2026-05-24T22:22:46.589952Z","epoch_age_seconds":84054,"freshness":"FRESH","line1":"1 61687U 24195A   26144.93248368 -.00000052  00000+0  44278-5 0  9996","line2":"2 61687  53.1595  10.7636 0000858  92.5973 267.5143 15.69709127 91002","mean_motion":15.69709127,"eccentricity":8.58e-5,"inclination_deg":53.1595,"raan_deg":10.7636,"arg_perigee_deg":92.5973,"mean_anomaly_deg":267.5143,"bstar":4.4278e-6,"rev_number":9100,"period_min":91.736741236391,"perigee_km":359.15113968864,"apogee_km":360.3073575369,"semimajor_km":6737.8662486128,"source":"CELESTRAK","updated_at":"2026-05-25T13:38:19.439045Z"}}}